Location: Bjelajci
(45.0103°N, 16.1758°E)
Time: 04:29:32
(UTC+00:00)

H-2A R/B - Pass Details

Date: 14 July 2020
Orbit: 577 x 656 km, 98.5° (Epoch: 11 August)

Event Time Altitude Azimuth Distance (km) Brightness Sun altitude
Rises 02:02:38 0° 157° (SSE) 2,929 5.3 -11.6°
Reaches altitude 10° 02:04:51 10° 154° (SSE) 2,014 4.5 -11.3°
Maximum altitude 02:09:12 65° 73° (ENE) 687 2.5 -10.8°
Drops below altitude 10° 02:13:28 10° 352° (N) 1,981 5.2 -10.3°
Sets 02:15:38 0° 349° (N) 2,878 6.0 -10.0°
